Location: Invercargill
(46.4000°S, 168.3500°E)
Time: 09:32:45
(UTC+12:00)

Cosmos 1992 Rocket - Pass Details

Date: 14 May 2021
Orbit: 758 x 766 km, 74.0° (Epoch: 15 June)

Event Time Altitude Azimuth Distance (km) Brightness Sun altitude
Rises 17:59:44 0° 348° (NNW) 3,231 7.7 -6.3°
Reaches altitude 10° 18:02:06 10° 350° (N) 2,312 6.9 -6.7°
Maximum altitude 18:07:19 68° 72° (ENE) 836 4.0 -7.5°
Drops below altitude 10° 18:12:36 10° 154° (SSE) 2,339 6.1 -8.4°
Sets 18:15:00 0° 156° (SSE) 3,272 6.9 -8.8°
